Preview of NWS' New Version of Forecast
This preview is not operational and should not be used for support decisions.
Latest weather observations around

Caribou, Caribou Municipal Airport (KCAR)

Using English Units (Switch to International System of Units)
Date/ Time (EST) Wind (mph) Vis. (mi) Weather Sky Cond. Temp (°F) Rel. Humidity Wind Chill (°F) Heat Index (°F) Pressure Precip. (in)
Air Dwpt 6 hour Altimeter (inHg) Sea level (inHg) 1 hr 3 hr 6 hr
Max Min
Jan 16 16:54 SSW 10 10 Mostly Cloudy FEW036 BKN085 26 20     77% 16   29.62 29.67      
Jan 16 15:54 SSW 10 9 Cloudy OVC095 27 21     78% 17   29.62 29.67      
Jan 16 15:30 SSW 8 10 Cloudy FEW020 BKN042 OVC100 27 20     75% 19   29.63        
Jan 16 14:54 S 10 10 Cloudy OVC028 27 20     75% 17   29.63 29.67      
Jan 16 13:54 S 10 10 Cloudy OVC043 24 18     77% 14   29.63 29.68      
Jan 16 12:54 S 7 10 Cloudy OVC060 21 16     81% 12   29.65 29.7 0   0
Jan 16 12:40 S 7 5 Light Snow and Fog/Mist FEW035 BKN055 OVC070 20 16     84% 11   29.66   0    
Jan 16 12:23 S 8 2 Light Snow BKN030 BKN036 OVC048 20 15     81% 10   29.67   0    
Jan 16 12:15 S 9 1.25 Light Snow and Fog/Mist BKN024 OVC034 19 15     84% 8   29.67   0    
Jan 16 11:54 S 9 0.5 Snow VV017 19 14     80% 8   29.69 29.74 0    
Jan 16 11:52 S 7 0.5 Snow VV017 19 14     79% 10   29.69   0    
Jan 16 11:29 S 9 1 Light Snow BKN026 OVC036 18 13     80% 7   29.7   0    
Jan 16 11:12 S 14 1 Light Snow BKN036 BKN044 OVC050 18 13     80% 4   29.71   0    
Jan 16 10:54 S 10 0.75 Light Snow and Fog/Mist SCT030 BKN036 OVC042 17 13     83% 5   29.72 29.77 0    
Jan 16 10:47 S 14 0.75 Light Snow BKN034 OVC042 17 12     80% 3   29.73   0    
Jan 16 10:39 S 13 1 Light Snow BKN036 OVC042 17 12     80% 4   29.74   0    
Jan 16 10:27 S 14 1.5 Light Snow SCT017 SCT026 OVC036 17 12     80% 3   29.74   0    
Jan 16 09:53 S 14 1.25 Light Snow and Fog/Mist OVC018 16 12     84% 2   29.76 29.81 0 0  
Jan 16 09:52 S 13 1.25 Light Snow OVC018 16 10     79% 2   29.76   0    
Jan 16 09:33 S 9 2 Light Snow OVC018 15 10     80% 3   29.77   0    
Jan 16 09:25 S 10 3 Light Snow OVC018 15 10     80% 3   29.78   0    
Jan 16 09:01 S 7 2 Light Snow and Fog/Mist OVC022 14 10     84% 4   29.79   0    
Jan 16 08:54 S 9 3 Light Snow OVC023 14 9     80% 2   29.79 29.84 0    
Jan 16 08:24 S 9 6 Light Snow and Fog/Mist BKN023 OVC043 13 9     84% 1   29.82   0    
Jan 16 07:54 SSE 8 10 Cloudy OVC042 11 6     80% -1   29.82 29.87      
Jan 16 06:54 SE 5 10 Cloudy FEW036 OVC060 8 3     79% -1   29.84 29.89 0   0
Jan 16 05:54 Calm 8 Cloudy OVC050 4 0     83%     29.87 29.92      
Jan 16 04:54 Calm 10 Cloudy OVC050 -1 -6     79%     29.87 29.93      
Jan 16 03:54 ENE 5 9 Cloudy OVC055 -2 -7     79% -12   29.9 29.95      
Jan 16 02:54 Calm 9 Cloudy OVC050 -7 -12     79%     29.93 29.99      
Jan 16 01:54 NE 3 7 Clear CLR -5 -10     79% -13   29.95 30.01      
Jan 16 00:54 Calm 10 Clear CLR -3 -8     78%     29.95 30.01      
Jan 15 23:54 Calm 10 Clear CLR -2 -7     79%     29.96 30.01      
Jan 15 22:54 Calm 10 Clear CLR -2 -7     79%     29.98 30.03      
Jan 15 21:54 Calm 7 Clear CLR 2 -3     80%     29.98 30.04      
Jan 15 20:54 N 3 10 Clear CLR 7 1     76% 0   29.99 30.04      
Jan 15 19:54 Calm 10 Clear CLR 9 3     76%     29.99 30.04      
Jan 15 18:54 Calm 10 Clear CLR 11 5     76%     29.99 30.04      
Jan 15 17:54 NNW 5 10 Clear CLR 14 6     70% 6   29.98 30.03      
Jan 15 16:54 Calm 10 Mostly Cloudy BKN033 14 6     70%     29.98 30.03      
Jan 15 15:54 NNW 3 10 Mostly Clear FEW024 14 5     67% 8   29.97 30.02      
Jan 15 15:25 N 6 10 Cloudy BKN024 OVC031 17 6     61% 9   29.96        
Jan 15 14:54 NNW 9 10 Cloudy OVC030 19 8     62% 8   29.95 30      
Jan 15 14:37 NNW 9 10 Cloudy OVC030 19 8     62% 8   29.95        
Jan 15 13:54 NNW 7 10 Cloudy OVC028 20 8     59% 11   29.95 29.99      
Jan 15 13:16 NNW 9 10 Cloudy BKN024 OVC041 19 9     64% 8   29.94        
Jan 15 12:54 NNW 10 10 Cloudy OVC042 20 9     62% 9   29.94 29.99      
Jan 15 11:54 N 10 10 Cloudy OVC041 20 9     62% 9   29.95 30      
Jan 15 10:54 N 9 10 Clear   17 8     67% 6   29.97 30.02      
Jan 15 09:54 Calm 10 Cloudy OVC033 13 5     70%     29.99 30.04      
Jan 15 08:54 Calm 10 Clear CLR 7 1     76%     29.98 30.04      
Jan 15 07:54 Calm 6 Haze FEW028 6 1     79%     29.97 30.03      
Jan 15 06:54 Calm 10 Mostly Clear FEW044 6 0     75%     29.97 30.02      
Jan 15 05:54 Calm 9 Mostly Cloudy BKN044 BKN120 7 1     76%     29.96 30.01      
Jan 15 04:54 Calm 8 Cloudy OVC043 6 0     75%     29.95 30      
Jan 15 03:54 Calm 8 Cloudy OVC043 5 0     79%     29.95 30      
Jan 15 02:54 Calm 7 Cloudy BKN035 OVC047 4 -1     80%     29.96 30.01      
Jan 15 01:54 Calm 10 Cloudy BKN034 OVC046 4 -1     80%     29.96 30.01      
Jan 15 00:54 Calm 10 Cloudy OVC048 4 -2     76%     29.95 30.01      
Jan 14 23:54 Calm 9 Mostly Cloudy BKN050 0 -5     79%     29.97 30.02      
Jan 14 22:54 Calm 10 Clear CLR 0 -5     79%     29.99 30.05      
Jan 14 21:54 Calm 10 Clear CLR 2 -4     76%     30 30.06      
Jan 14 20:54 Calm 10 Clear CLR 3 -3     76%     30.02 30.08      
Jan 14 19:54 Calm 10 Clear CLR 6 -2     69%     30.02 30.08      
Jan 14 18:54 NE 3 10 Clear CLR 5 -2     72% -2   30.03 30.1      
Jan 14 17:54 E 3 10 Clear CLR 7 -2     66% 0   30.06 30.12      
Jan 14 16:54 E 3 10 Clear CLR 7 -2     66% 0   30.07 30.13      
Jan 14 15:54 ESE 3 10 Clear CLR 10 0     63% 4   30.08 30.14      
Jan 14 14:54 SE 5 10 Clear CLR 11 0     61% 3   30.1 30.16      
Jan 14 13:54 E 3 10 Clear CLR 11 0     61% 5   30.12 30.18      
Jan 14 12:54 S 3 10 Clear CLR 9 0     66% 3   30.14 30.19      
Jan 14 11:54 S 5 10 Clear CLR 7 -1     69% -2   30.17 30.23      
Jan 14 10:54 SSE 5 10 Clear CLR 4 -3     73% -5   30.21 30.27      
Jan 14 09:54 SW 3 10 Clear CLR 0 -4     83% -8   30.24 30.3      
Jan 14 08:54 Calm 10 Clear CLR -4 -7     86%     30.25 30.32      
Jan 14 07:54 SW 3 10 Clear CLR -7 -12     79% -16   30.26 30.32      
Jan 14 06:54 Calm 10 Clear CLR -8 -13     78%     30.25 30.32     0
Jan 14 05:54 WSW 3 10 Clear CLR -8 -14     74% -17   30.26 30.32      
Jan 14 05:30 Calm 9 Partly Cloudy SCT017 -6 -11     78%     30.27        
Jan 14 04:54 WSW 3 10 Cloudy OVC017 -7 -12     79% -16   30.28 30.34      
Jan 14 04:13 Calm 10 Cloudy FEW009 OVC017 -7 -12     79%     30.28        
Jan 14 04:03 Calm 10 Cloudy SCT010 OVC016 -7 -12     79%     30.28        
Jan 14 03:54 Calm 8 Cloudy BKN010 OVC016 -7 -12     79%     30.28 30.34   0  
Jan 14 03:45 S 3 6 Haze BKN011 OVC016 -6 -11     78% -14   30.28        
Jan 14 02:54 WSW 3 8 Cloudy OVC018 -4 -8     83% -12   30.31 30.37      
Jan 14 01:54 WSW 3 7 Cloudy OVC018 -2 -8     75% -10   30.32 30.37 0    
Jan 14 00:54 SW 5 3 Light Snow OVC017 -2 -7     79% -12   30.32 30.37 0   0
Jan 13 23:54 WSW 5 5 Haze OVC017 -1 -7     75% -11   30.32 30.38      
Jan 13 22:54 Calm 6 Haze OVC016 -4 -9     78%     30.33 30.39      
Jan 13 22:35 Calm 8 Mostly Cloudy BKN016 -4 -9     78%     30.34        
Jan 13 21:54 W 3 10 Clear CLR -4 -9     78% -12   30.34 30.4      
Jan 13 20:54 W 3 10 Clear CLR -1 -6     79% -9   30.34 30.41      
Jan 13 19:54 NW 5 10 Clear CLR 1 -3     83% -9   30.34 30.41      
Jan 13 18:54 NW 6 10 Clear CLR 4 -2     76% -7   30.34 30.4      
Jan 13 17:54 NNW 5 10 Clear CLR 4 -2     76% -5   30.33 30.4      
May 14 17:54 WNW 13 10 Partly Cloudy SCT100 77 36     23%   75 29.66 29.67      
May 13 03:54 WSW 5 10 Mostly Clear FEW100 41 22     46% 38   30.08 30.1      
May 12 09:54 WSW 9 10 Clear CLR 47 17     30% 43   30.13 30.16      
May 12 02:54 W 6 10 Clear CLR 30 19     63% 24   30.1 30.13      
May 11 23:54 NNW 8 10 Clear CLR 34 20     56% 27   30.09 30.11      
Jun 11 17:54 W 15 10 Clear   87 57     36%   86 29.59 29.59      
Jun 11 11:54 SW 20 10 Clear and Windy CLR 85 60     43%   85 29.55 29.55      
Jun 08 22:54 SSW 7 10 Clear CLR 68 49     50%     29.75 29.75      
Jun 07 09:54 WSW 7 10 Clear CLR 65 43     45%     29.89 29.89      
Jun 06 03:54 NE 6 10 Clear CLR 43 39     86% 39   30.08 30.09